Ironwood, MI

12:52 AM CDT on September 22, 2017 (GMT -0500)
Gogebic-Iron County

Weather History for KIWD - October, 2012

Change the Weather History Date:

Sunday, October 28, 2012

  Actual Average Record
Temperature  
Mean Temperature 32 °F -  
Max Temperature 44 °F 46 °F 57 °F (1998)
Min Temperature 19 °F 32 °F 19 °F (2012)
Degree Days  
Heating Degree Days 34    
Moisture  
Dew Point 19 °F    
Average Humidity 65    
Maximum Humidity 93    
Minimum Humidity 34    
Precipitation  
Precipitation 0.00 in - - ()
Sea Level Pressure  
Sea Level Pressure 30.30 in    
Wind  
Wind Speed 2 mph (South)    
Max Wind Speed 10 mph    
Max Gust Speed 16 mph    
Visibility 10 miles    
Events      
Averages and records for this station are not official NWS values.
T = Trace of Precipitation, MM = Missing Value Source: NWS Daily Summary

Daily Weather History Graph

Daily Weather History Graph

Search for Another Location

Airport or City:

Trip Planner

Search our weather history database for the weather conditions in past years. The results will help you decide how hot, cold, wet, or windy it might be!

Date:

Astronomy

Oct. 28, 2012 Rise Set
Actual Time 7:37 AM CDT 5:50 PM CDT
Civil Twilight 7:05 AM CDT 6:21 PM CDT
Nautical Twilight 6:30 AM CDT 6:57 PM CDT
Astronomical Twilight 5:55 AM CDT 7:32 PM CDT
Moon 5:08 PM CDT (10/28) 6:28 AM CDT (10/28)
Length of Visible Light 11h 16m
Length of Day
10h 13m
Waxing Gibbous, 99% of the Moon is Illuminated
Oct 28
Waxing Gibbous
Oct 29
Full
Nov 6
Last Quarter
Nov 13
New
Nov 20
First Quarter

Hourly Weather History & Observations

Time (CDT) Temp. Windchill Dew Point Humidity Pressure Visibility Wind Dir Wind Speed Gust Speed Precip Events Conditions
12:15 AM 23.0 °F - 19.4 °F 86% 30.32 in 10.0 mi Calm Calm - N/A   Clear
1:15 AM 23.0 °F - 17.6 °F 80% 30.32 in 10.0 mi Calm Calm - N/A   Partly Cloudy
1:35 AM 23.0 °F - 19.4 °F 86% 30.32 in 10.0 mi Calm Calm - N/A   Partly Cloudy
1:55 AM 21.2 °F - 17.6 °F 86% 30.32 in 8.0 mi Calm Calm - N/A   Clear
2:15 AM 21.2 °F - 17.6 °F 86% 30.32 in 10.0 mi Calm Calm - N/A   Clear
2:35 AM 21.2 °F - 15.8 °F 80% 30.32 in 10.0 mi Calm Calm - N/A   Scattered Clouds
2:55 AM 21.2 °F - 19.4 °F 93% 30.32 in 10.0 mi Calm Calm - N/A   Scattered Clouds
3:15 AM 21.2 °F - 17.6 °F 86% 30.32 in 10.0 mi Calm Calm - N/A   Clear
3:35 AM 21.2 °F - 15.8 °F 80% 30.31 in 10.0 mi Calm Calm - N/A   Clear
3:55 AM 21.2 °F - 17.6 °F 86% 30.31 in 10.0 mi Calm Calm - N/A   Scattered Clouds
4:15 AM 21.2 °F - 17.6 °F 86% 30.31 in 10.0 mi Calm Calm - N/A   Mostly Cloudy
4:35 AM 21.2 °F - 17.6 °F 86% 30.31 in 10.0 mi Calm Calm - N/A   Scattered Clouds
4:55 AM 21.2 °F - 17.6 °F 86% 30.31 in 10.0 mi Calm Calm - N/A   Clear
5:15 AM 21.2 °F - 15.8 °F 80% 30.31 in 10.0 mi Calm Calm - N/A   Partly Cloudy
5:35 AM 21.2 °F - 15.8 °F 80% 30.31 in 10.0 mi Calm Calm - N/A   Clear
5:55 AM 19.4 °F - 15.8 °F 86% 30.31 in 10.0 mi Calm Calm - N/A   Clear
6:15 AM 19.4 °F - 14.0 °F 80% 30.31 in 10.0 mi Calm Calm - N/A   Clear
6:35 AM 19.4 °F - 15.8 °F 86% 30.31 in 10.0 mi Calm Calm - N/A   Clear
6:55 AM 19.4 °F - 14.0 °F 80% 30.31 in 10.0 mi Calm Calm - N/A   Clear
7:15 AM 19.4 °F - 15.8 °F 86% 30.32 in 10.0 mi Calm Calm - N/A   Clear
7:35 AM 19.4 °F - 15.8 °F 86% 30.32 in 10.0 mi Calm Calm - N/A   Clear
8:15 AM 23.0 °F - 17.6 °F 80% 30.32 in 10.0 mi Calm Calm - N/A   Mostly Cloudy
8:35 AM 24.8 °F - 19.4 °F 80% 30.33 in 10.0 mi Calm Calm - N/A   Mostly Cloudy
8:55 AM 26.6 °F - 19.4 °F 74% 30.33 in 10.0 mi Calm Calm - N/A   Mostly Cloudy
9:15 AM 28.4 °F - 21.2 °F 74% 30.33 in 10.0 mi Calm Calm - N/A   Scattered Clouds
9:35 AM 30.2 °F 24.3 °F 21.2 °F 69% 30.33 in 10.0 mi SSE 5.8 mph - N/A   Scattered Clouds
9:55 AM 32.0 °F 25.6 °F 23.0 °F 69% 30.32 in 10.0 mi South 6.9 mph - N/A   Mostly Cloudy
10:15 AM 33.8 °F 27.0 °F 21.2 °F 60% 30.32 in 10.0 mi South 8.1 mph - N/A   Scattered Clouds
10:35 AM 33.8 °F 28.6 °F 21.2 °F 60% 30.32 in 10.0 mi South 5.8 mph - N/A   Mostly Cloudy
10:55 AM 35.6 °F 29.9 °F 21.2 °F 56% 30.32 in 10.0 mi South 6.9 mph - N/A   Mostly Cloudy
11:15 AM 37.4 °F 32.1 °F 21.2 °F 52% 30.32 in 10.0 mi SSE 6.9 mph - N/A   Partly Cloudy
11:35 AM 39.2 °F 34.2 °F 21.2 °F 49% 30.31 in 10.0 mi South 6.9 mph - N/A   Clear
11:55 AM 39.2 °F 32.5 °F 19.4 °F 45% 30.31 in 10.0 mi SSW 10.4 mph - N/A   Clear
12:15 PM 39.2 °F 32.5 °F 19.4 °F 45% 30.30 in 10.0 mi SW 10.4 mph - N/A   Clear
12:35 PM 41.0 °F 34.7 °F 19.4 °F 42% 30.30 in 10.0 mi SSW 10.4 mph 16.1 mph N/A   Clear
12:55 PM 42.8 °F 38.0 °F 21.2 °F 42% 30.30 in 10.0 mi South 8.1 mph - N/A   Clear
1:15 PM 42.8 °F 37.0 °F 19.4 °F 39% 30.29 in 10.0 mi SW 10.4 mph - N/A   Clear
1:35 PM 42.8 °F 37.5 °F 17.6 °F 36% 30.29 in 10.0 mi SSW 9.2 mph - N/A   Clear
1:55 PM 42.8 °F 39.3 °F 19.4 °F 39% 30.29 in 10.0 mi SW 5.8 mph - N/A   Clear
2:15 PM 42.8 °F 37.5 °F 17.6 °F 36% 30.28 in 10.0 mi South 9.2 mph - N/A   Clear
2:35 PM 42.8 °F 38.6 °F 17.6 °F 36% 30.28 in 10.0 mi SSE 6.9 mph - N/A   Partly Cloudy
2:55 PM 42.8 °F 40.1 °F 17.6 °F 36% 30.27 in 10.0 mi SSW 4.6 mph - N/A   Partly Cloudy
3:15 PM 44.6 °F 39.7 °F 17.6 °F 34% 30.27 in 10.0 mi SSW 9.2 mph - N/A   Clear
3:35 PM 42.8 °F 38.0 °F 17.6 °F 36% 30.27 in 10.0 mi South 8.1 mph - N/A   Clear
3:55 PM 44.6 °F 40.2 °F 17.6 °F 34% 30.27 in 10.0 mi SSW 8.1 mph - N/A   Mostly Cloudy
4:15 PM 42.8 °F 40.1 °F 15.8 °F 34% 30.27 in 10.0 mi SW 4.6 mph - N/A   Partly Cloudy
4:35 PM 44.6 °F 41.4 °F 17.6 °F 34% 30.27 in 10.0 mi South 5.8 mph - N/A   Mostly Cloudy
4:55 PM 42.8 °F 38.6 °F 15.8 °F 34% 30.28 in 10.0 mi South 6.9 mph - N/A   Mostly Cloudy
5:15 PM 41.0 °F 38.0 °F 23.0 °F 49% 30.28 in 10.0 mi North 4.6 mph - N/A   Clear
5:35 PM 39.2 °F 35.0 °F 21.2 °F 49% 30.28 in 10.0 mi North 5.8 mph - N/A   Mostly Cloudy
5:55 PM 37.4 °F 33.8 °F 21.2 °F 52% 30.28 in 10.0 mi North 4.6 mph - N/A   Scattered Clouds
6:15 PM 37.4 °F - 21.2 °F 52% 30.28 in 10.0 mi Calm Calm - N/A   Scattered Clouds
6:35 PM 35.6 °F - 21.2 °F 56% 30.29 in 10.0 mi Calm Calm - N/A   Mostly Cloudy
6:55 PM 33.8 °F - 21.2 °F 60% 30.29 in 10.0 mi Calm Calm - N/A   Overcast
7:15 PM 32.0 °F - 21.2 °F 64% 30.29 in 10.0 mi Calm Calm - N/A   Overcast
7:35 PM 30.2 °F - 21.2 °F 69% 30.30 in 10.0 mi Calm Calm - N/A   Overcast
7:55 PM 30.2 °F 24.3 °F 21.2 °F 69% 30.30 in 10.0 mi East 5.8 mph - N/A   Scattered Clouds
8:15 PM 30.2 °F 26.7 °F 21.2 °F 69% 30.30 in 10.0 mi East 3.5 mph - N/A   Mostly Cloudy
8:35 PM 32.0 °F 28.7 °F 21.2 °F 64% 30.30 in 10.0 mi East 3.5 mph - N/A   Partly Cloudy
8:55 PM 30.2 °F 26.7 °F 21.2 °F 69% 30.30 in 10.0 mi East 3.5 mph - N/A   Partly Cloudy
9:15 PM 30.2 °F 25.4 °F 21.2 °F 69% 30.30 in 10.0 mi East 4.6 mph - N/A   Scattered Clouds
9:35 PM 30.2 °F 25.4 °F 21.2 °F 69% 30.30 in 10.0 mi East 4.6 mph - N/A   Scattered Clouds
10:35 PM 30.2 °F 26.7 °F 21.2 °F 69% 30.31 in 10.0 mi East 3.5 mph - N/A   Mostly Cloudy
10:55 PM 28.4 °F - 21.2 °F 74% 30.31 in 10.0 mi Calm Calm - N/A   Overcast
11:15 PM 28.4 °F - 19.4 °F 69% 30.30 in 10.0 mi Calm Calm - N/A   Mostly Cloudy
11:35 PM 26.6 °F - 21.2 °F 80% 30.30 in 10.0 mi Calm Calm - N/A   Partly Cloudy
11:55 PM 26.6 °F - 19.4 °F 74% 30.30 in 10.0 mi Calm Calm - N/A   Clear